Regional Weather Roundup
Issued by NWS

Home | Current Version | Previous Version | Text Only | Print | Product List | Glossary On
Versions: 1 2 3 4 5 6 7 8 9 10 11 12 13 14 15 16 17 18 19 20 21 22 23 24 25 26 27 28 29 30 31 32 33 34 35 36 37 38 39 40 41 42 43 44 45 46 47 48
000
ASUS42 KKEY 251510
RWRKEY

FLORIDA REGIONAL WEATHER ROUNDUP FOR THE FLORIDA KEYS
NATIONAL WEATHER SERVICE KEY WEST FLORIDA
1000 AM EST THU DEC 25 2014

...SOUTH FLORIDA AND THE KEYS...

CITY           SKY/WX    TMP DP  RH WIND       PRES   REMARKS
FORT MYERS     CLOUDY    67  58  72 NE9       30.19R
SW REGIONAL AP CLOUDY    66  57  72 N8        30.19R
NAPLES         PTSUNNY   69  61  75 N7        30.18R
MIAMI          CLOUDY    71  64  78 N7        30.16R
WEST KENDALL   CLOUDY    72  63  73 N15       30.16R
HOMESTEAD      CLOUDY    71  65  82 NW14      30.15R
MARATHON       PTSUNNY   72  67  84 N14       30.14R
BOCA CHICA NAS LGT RAIN  71  64  78 N13       30.16R
KEY WEST INTL  MOSUNNY   72  65  78 N9G18     30.17R

...INTERNATIONAL WEATHER...

CITY           SKY/WX    TMP DP  RH WIND       PRES   REMARKS
NASSAU BAHAMAS PTSUNNY   81  77  89 S8        30.15R
CANCUN MEXICO  MOSUNNY   75  66  73 N7        30.14R
COZUMEL MEXICO MOSUNNY   70  66  88 N14       30.14R

ADJACENT COASTAL WATERS...

STATION/POSITION TIME  SKY/WX   TEMP    WIND        PRES    WAVE
                                AIR SEA DIR/SP/G            HT/PER
                 (UTC)          (F)     (DEG/KT/KT) (MB)    (FT/S)
PULASKI SHOAL LI 1400            72      20/ 12/ 14 1020.9R
SAND KEY         1436            71      20/ 15/ 18 1021.4R
SOMBRERO KEY     1500            71     360/ 17/ 19 1021.2R
LONG KEY         1359            71 75   10/ 14/ 15 1020.7R
MOLASSES REEF    1500            71 78  360/ 16/ 17 1020.1R
FOWEY ROCKS      NOT AVBL
Buoy 42080       NOT AVBL

$$


USA.gov is the U.S. government's official web portal to all federal, state and local government web resources and services.